THAICOM 3

导读 | 豆包AI

THAICOM 3(泰国通信3号)是泰国运营的通信卫星,由阿尔卡特空间公司与阿莱尼亚宇航公司联合研制,于1997年4月16日在法属圭亚那航天中心,由阿丽亚娜4运载火箭发射升空。该卫星定位于地球静止轨道,设计工作寿命14年,发射质量约2652千克,主要为亚太区域提供通信、广播等服务,后续由THAICOM 5接替其工作,目前已完成使命离轨。

基本信息
目录编号:
24768
目录名称:
THAICOM 3
国际标识:
1997-016A
轨道中心:
EARTH
卫星名称:
THAICOM 3
卫星全名:
--
卫星状态:
在轨 (已飞行10607 天)
发射日期:
1997-04-16 UTC
国别 :
(TH)
星等 :
--
轨道信息
数据来源 国际轨道数据 AOE轨道数据
星历时间 2026-05-01T01:15:34+0800
14小时前
查看轨道信息
2026-05-01T05:00:00+0800
10小时前
查看轨道信息
半长轴 42596.583km 42596.612km
偏心率 0.0090485 0.0090638
轨道倾角 12.953° 12.953°
近地点辐角 47.829° 47.685°
升交点赤经 25.532° 25.529°
平近点角 136.438° 191.991°
近地点 35833.01km 35832.387km
远地点 36603.882km 36604.563km
周期 1458.216分钟 1458.218分钟
每日圈数 0.987508 0.987507
详细信息
使用方式:
暂无
2D轨道图
3D轨道图
轨道高度分析图
轨道倾角分析图
轨道综合分析图
查看轨道综合分析图